When you browse on this site, cookies collect data to enhance your experience and personalize the content and advertising you see.
Visit our Privacy Policy to learn more. By continuing to use the site, you agree to this use of cookies and data.
  • In Hungary
  • List of Countries
  • For 7 days
  • Water Temperature
  • Weather Map
  • News
  • Weather Widgets
  • user-avatar
    Login

    Hourly Weather Maryshki

    Today, 22 January, Wednesday

    Time Temperature Precipitation Wind Pressure Humidity
    00:00 -1°C° 0 mm 6 mps 739 mmHg 79%
    01:00 -2°C° 0 mm 6 mps 739 mmHg 77%
    02:00 -2°C° 0 mm 6 mps 739 mmHg 76%
    03:00 -1°C° 0 mm 5 mps 738 mmHg 75%
    04:00 -1°C° 0 mm 5 mps 737 mmHg 74%
    05:00 -1°C° 0 mm 5 mps 736 mmHg 74%
    06:00 -1°C° 0 mm 4 mps 735 mmHg 75%
    07:00 -1°C° 0 mm 4 mps 735 mmHg 77%
    08:00 -1°C° 0 mm 4 mps 734 mmHg 79%
    09:00 -1°C° 0 mm 5 mps 734 mmHg 78%
    10:00 0°C° 0 mm 5 mps 734 mmHg 77%
    11:00 -1°C° 0 mm 6 mps 733 mmHg 76%
    12:00 -1°C° 0.3 mm 6 mps 733 mmHg 78%
    13:00 -2°C° 0.3 mm 6 mps 733 mmHg 79%
    14:00 -2°C° 0.3 mm 6 mps 733 mmHg 81%
    15:00 -3°C° 0.1 mm 6 mps 733 mmHg 79%
    16:00 -2°C° 0.1 mm 5 mps 734 mmHg 76%
    17:00 -4°C° 0.1 mm 5 mps 734 mmHg 74%
    18:00 -4°C° 0 mm 5 mps 735 mmHg 75%
    19:00 -4°C° 0 mm 5 mps 736 mmHg 75%
    20:00 -4°C° 0 mm 5 mps 736 mmHg 76%
    21:00 -4°C° 0 mm 5 mps 737 mmHg 77%
    22:00 -4°C° 0 mm 5 mps 737 mmHg 77%
    23:00 -4°C° 0 mm 6 mps 737 mmHg 78%

    Tomorrow, 23 January, Thursday

    Time Temperature Precipitation Wind Pressure Humidity
    00:00 -5°C° 0.1 mm 6 mps 738 mmHg 78%
    01:00 -5°C° 0.1 mm 6 mps 739 mmHg 78%
    02:00 -6°C° 0.1 mm 7 mps 739 mmHg 77%
    03:00 -6°C° 0 mm 7 mps 740 mmHg 72%
    04:00 -7°C° 0 mm 7 mps 740 mmHg 67%
    05:00 -7°C° 0 mm 7 mps 740 mmHg 63%
    06:00 -6°C° 0 mm 6 mps 741 mmHg 61%
    07:00 -6°C° 0 mm 6 mps 742 mmHg 60%
    08:00 -6°C° 0 mm 6 mps 743 mmHg 59%
    09:00 -6°C° 0 mm 6 mps 743 mmHg 56%
    10:00 -5°C° 0 mm 6 mps 744 mmHg 53%
    11:00 -5°C° 0 mm 6 mps 744 mmHg 50%
    12:00 -5°C° 0 mm 6 mps 744 mmHg 50%
    13:00 -4°C° 0 mm 6 mps 744 mmHg 50%
    14:00 -4°C° 0 mm 6 mps 744 mmHg 49%
    15:00 -4°C° 0 mm 6 mps 745 mmHg 55%
    16:00 -5°C° 0 mm 5 mps 745 mmHg 61%
    17:00 -5°C° 0 mm 5 mps 745 mmHg 66%
    18:00 -4°C° 0 mm 4 mps 745 mmHg 69%
    19:00 -4°C° 0 mm 4 mps 745 mmHg 72%
    20:00 -4°C° 0 mm 4 mps 746 mmHg 75%
    21:00 -4°C° 0 mm 3 mps 745 mmHg 77%
    22:00 -4°C° 0 mm 3 mps 745 mmHg 80%
    23:00 -4°C° 0 mm 3 mps 745 mmHg 82%

    Day after tomorrow, 24 January, Friday

    Time Temperature Precipitation Wind Pressure Humidity
    00:00 -4°C° 0 mm 3 mps 745 mmHg 84%
    01:00 -4°C° 0 mm 4 mps 745 mmHg 85%
    02:00 -3°C° 0 mm 4 mps 744 mmHg 87%
    03:00 -4°C° 0 mm 5 mps 744 mmHg 87%
    04:00 -4°C° 0 mm 5 mps 743 mmHg 88%
    05:00 -4°C° 0 mm 5 mps 742 mmHg 89%
    06:00 -4°C° 0.2 mm 5 mps 742 mmHg 91%
    07:00 -4°C° 0.2 mm 6 mps 741 mmHg 93%
    08:00 -3°C° 0.2 mm 6 mps 741 mmHg 95%
    09:00 -3°C° 0.1 mm 6 mps 740 mmHg 95%
    10:00 -1°C° 0.1 mm 5 mps 740 mmHg 94%
    11:00 0°C° 0.1 mm 5 mps 740 mmHg 94%
    12:00 0°C° 0.1 mm 5 mps 740 mmHg 94%
    13:00 +1°C° 0.1 mm 5 mps 740 mmHg 94%
    14:00 +1°C° 0.1 mm 6 mps 740 mmHg 93%
    15:00 +1°C° 0 mm 6 mps 739 mmHg 93%
    16:00 +1°C° 0 mm 6 mps 739 mmHg 93%
    17:00 +1°C° 0 mm 6 mps 739 mmHg 92%
    18:00 +1°C° 0 mm 6 mps 739 mmHg 92%
    19:00 +1°C° 0 mm 6 mps 739 mmHg 92%
    20:00 +1°C° 0 mm 6 mps 739 mmHg 92%
    21:00 +1°C° 0.1 mm 6 mps 739 mmHg 93%
    22:00 +1°C° 0.1 mm 6 mps 739 mmHg 93%
    23:00 +1°C° 0.1 mm 6 mps 738 mmHg 93%

    25 January, Saturday

    Time Temperature Precipitation Wind Pressure Humidity
    00:00 +1°C° 0.4 mm 6 mps 738 mmHg 93%
    01:00 +1°C° 0.4 mm 6 mps 738 mmHg 94%
    02:00 +1°C° 0.4 mm 6 mps 738 mmHg 95%
    03:00 +1°C° 0.2 mm 5 mps 738 mmHg 95%
    04:00 +1°C° 0.2 mm 5 mps 738 mmHg 95%
    05:00 +1°C° 0.2 mm 5 mps 737 mmHg 94%
    06:00 +1°C° 0 mm 5 mps 737 mmHg 94%
    07:00 +1°C° 0 mm 5 mps 738 mmHg 94%
    08:00 +1°C° 0 mm 4 mps 738 mmHg 93%
    09:00 +1°C° 0.1 mm 4 mps 738 mmHg 92%
    10:00 +1°C° 0.1 mm 5 mps 738 mmHg 91%
    11:00 +1°C° 0.1 mm 5 mps 738 mmHg 90%
    12:00 +1°C° 0.1 mm 4 mps 738 mmHg 88%
    13:00 +3°C° 0.1 mm 4 mps 738 mmHg 86%
    14:00 +3°C° 0.1 mm 4 mps 738 mmHg 83%
    15:00 +1°C° 0 mm 4 mps 739 mmHg 84%
    16:00 0°C° 0 mm 4 mps 739 mmHg 85%
    17:00 -1°C° 0 mm 4 mps 739 mmHg 86%
    18:00 -1°C° 0 mm 4 mps 739 mmHg 87%
    19:00 -1°C° 0 mm 4 mps 739 mmHg 88%
    20:00 -2°C° 0 mm 4 mps 739 mmHg 89%
    21:00 -2°C° 0 mm 5 mps 740 mmHg 87%
    22:00 -2°C° 0 mm 5 mps 740 mmHg 86%
    23:00 -2°C° 0 mm 5 mps 740 mmHg 85%

    26 January, Sunday

    Time Temperature Precipitation Wind Pressure Humidity
    00:00 -2°C° 0 mm 5 mps 740 mmHg 86%
    01:00 -2°C° 0 mm 5 mps 741 mmHg 87%
    02:00 -2°C° 0 mm 5 mps 741 mmHg 88%
    03:00 -3°C° 0 mm 4 mps 741 mmHg 89%
    04:00 -3°C° 0 mm 4 mps 742 mmHg 91%
    05:00 -3°C° 0 mm 4 mps 742 mmHg 92%
    06:00 -3°C° 0 mm 4 mps 743 mmHg 93%
    07:00 -2°C° 0 mm 3 mps 743 mmHg 93%
    08:00 -2°C° 0 mm 3 mps 744 mmHg 93%
    09:00 -2°C° 0 mm 3 mps 744 mmHg 91%
    10:00 -1°C° 0 mm 3 mps 745 mmHg 88%
    11:00 -1°C° 0 mm 2 mps 745 mmHg 86%
    12:00 +1°C° 0 mm 2 mps 745 mmHg 85%
    13:00 +1°C° 0 mm 2 mps 745 mmHg 83%
    14:00 +1°C° 0 mm 2 mps 746 mmHg 82%
    15:00 +1°C° 0 mm 2 mps 746 mmHg 85%
    16:00 -1°C° 0 mm 2 mps 746 mmHg 89%
    17:00 -2°C° 0 mm 2 mps 746 mmHg 92%
    18:00 -2°C° 0 mm 2 mps 746 mmHg 92%
    19:00 -2°C° 0 mm 3 mps 746 mmHg 92%
    20:00 -2°C° 0 mm 3 mps 747 mmHg 92%
    21:00 -1°C° 0 mm 3 mps 747 mmHg 89%
    22:00 -1°C° 0 mm 3 mps 747 mmHg 86%
    23:00 -1°C° 0 mm 3 mps 747 mmHg 83%

    27 January, Monday

    Time Temperature Precipitation Wind Pressure Humidity
    00:00 -1°C° 0 mm 2 mps 747 mmHg 82%
    01:00 -1°C° 0 mm 2 mps 747 mmHg 81%
    02:00 -1°C° 0 mm 2 mps 746 mmHg 80%
    03:00 -1°C° 0 mm 2 mps 746 mmHg 80%
    04:00 -1°C° 0 mm 2 mps 746 mmHg 81%
    05:00 -1°C° 0 mm 2 mps 746 mmHg 82%
    06:00 -1°C° 0 mm 3 mps 746 mmHg 85%
    07:00 -1°C° 0 mm 3 mps 745 mmHg 88%
    08:00 -1°C° 0 mm 3 mps 745 mmHg 90%
    09:00 -1°C° 0 mm 3 mps 745 mmHg 92%
    10:00 -1°C° 0 mm 4 mps 745 mmHg 94%
    11:00 -1°C° 0 mm 4 mps 745 mmHg 96%
    12:00 -1°C° 0 mm 4 mps 745 mmHg 91%
    13:00 -1°C° 0 mm 4 mps 744 mmHg 85%
    14:00 -1°C° 0 mm 5 mps 744 mmHg 80%
    15:00 -1°C° 0 mm 4 mps 744 mmHg 82%
    16:00 -1°C° 0 mm 4 mps 743 mmHg 84%
    17:00 -2°C° 0 mm 4 mps 743 mmHg 86%
    18:00 -2°C° 0 mm 4 mps 743 mmHg 86%
    19:00 -1°C° 0 mm 4 mps 743 mmHg 87%
    20:00 -1°C° 0 mm 5 mps 743 mmHg 88%
    21:00 -1°C° 0 mm 4 mps 743 mmHg 90%
    22:00 -2°C° 0 mm 4 mps 742 mmHg 92%
    23:00 -2°C° 0 mm 4 mps 742 mmHg 94%
    Show more